Date String (YYYY-MM-DD hh:mm:ss) UTC,Instrument flags,Ambient pressure (hPa),Sample flow (lpm),Bypass flow (lpm),Sample temperature (°C),Ambient temperature (°C),ASC tube jacket temperature (°C),LED temperature (°C),Box temperature (°C),Sample RH (%),Span deviation,Mass concentration (μg/m³),Mass concentration (μg/m³),Mass concentration (μg/m³)
DateTimeUTC,F1_M11,P_M11,Q1_M11,Q2_M11,T1_M11,T2_M11,T3_M11,T4_M11,T5_M11,U1_M11,ZSPAN_M11,X0_M11,X2_M11,X1_M11
2022-03-13 07:00:00,,0823.6,4.98,0.00,22.2,21.4,00.0,31.2,23.8,11.3,0000.0,0001.44,0000.94,0000.64
2022-03-13 07:01:00,,0823.6,5.01,0.00,22.2,21.4,00.0,31.3,23.9,11.5,0000.0,0001.38,0000.93,0000.64
2022-03-13 07:02:00,,0823.6,5.00,0.00,22.2,21.4,00.0,31.3,23.9,11.3,0000.0,0001.36,0000.91,0000.64
2022-03-13 07:03:00,,0823.6,5.00,0.00,22.2,21.5,00.0,31.3,24.0,11.3,0000.0,0001.40,0000.92,0000.64
2022-03-13 07:04:00,,0823.7,5.00,0.00,22.2,21.5,00.0,31.3,24.0,11.0,0000.0,0001.28,0000.87,0000.63
2022-03-13 07:05:00,,0823.6,5.01,0.00,22.2,21.5,00.0,31.3,24.0,11.1,0000.0,0001.25,0000.87,0000.63
2022-03-13 07:06:00,,0823.6,5.01,0.00,22.2,21.5,00.0,31.3,24.0,10.9,0000.0,0001.83,0000.89,0000.64
2022-03-13 07:07:00,,0823.6,4.99,0.00,22.2,21.5,00.0,31.3,24.0,10.9,0000.0,0002.34,0000.94,0000.64
2022-03-13 07:08:00,,0823.6,4.99,0.00,22.2,21.5,00.0,31.3,24.0,10.9,0000.0,0002.33,0000.93,0000.64
2022-03-13 07:09:00,,0823.6,5.00,0.00,22.3,21.6,00.0,31.3,24.0,11.0,0000.0,0002.63,0000.96,0000.65
2022-03-13 07:10:00,,0823.6,4.99,0.00,22.3,21.6,00.0,31.3,24.0,10.9,0000.0,0003.32,0001.05,0000.68
2022-03-13 07:11:00,,0823.6,5.00,0.00,22.3,21.6,00.0,31.3,24.1,10.7,0000.0,0003.47,0001.11,0000.69
2022-03-13 07:12:00,,0823.6,5.00,0.00,22.3,21.7,00.0,31.3,24.1,10.7,0000.0,0003.54,0001.14,0000.69
2022-03-13 07:13:00,,0823.6,5.00,0.00,22.3,21.7,00.0,31.3,24.1,10.7,0000.0,0003.70,0001.20,0000.70
2022-03-13 07:14:00,,0823.7,5.00,0.00,22.4,21.7,00.0,31.3,24.2,10.8,0000.0,0004.02,0001.27,0000.72
2022-03-13 07:15:00,,0823.6,5.00,0.00,22.4,21.7,00.0,31.3,24.2,10.7,0000.0,0004.39,0001.33,0000.74
2022-03-13 07:16:00,,0823.6,5.01,0.00,22.4,21.7,00.0,31.3,24.2,10.8,0000.0,0004.68,0001.41,0000.76
2022-03-13 07:17:00,,0823.6,5.00,0.00,22.4,21.8,00.0,31.3,24.2,10.9,0000.0,0004.66,0001.50,0000.77
2022-03-13 07:18:00,,0823.7,4.99,0.00,22.4,21.8,00.0,31.3,24.2,10.8,0000.0,0004.06,0001.54,0000.80
2022-03-13 07:19:00,,0823.6,5.00,0.00,22.4,21.8,00.0,31.3,24.3,10.8,0000.0,0004.25,0001.60,0000.82
2022-03-13 07:20:00,,0823.7,5.00,0.00,22.4,21.8,00.0,31.3,24.3,10.8,0000.0,0004.33,0001.62,0000.82
2022-03-13 07:21:00,,0823.7,5.00,0.00,22.5,21.8,00.0,31.4,24.3,10.8,0000.0,0003.65,0001.62,0000.82
2022-03-13 07:22:00,,0823.6,4.99,0.00,22.5,21.8,00.0,31.4,24.3,10.7,0000.0,0003.66,0001.61,0000.81
2022-03-13 07:23:00,,0823.5,5.01,0.00,22.5,21.9,00.0,31.4,24.3,10.7,0000.0,0003.67,0001.59,0000.81
2022-03-13 07:24:00,,0823.6,5.00,0.00,22.5,21.9,00.0,31.4,24.3,10.6,0000.0,0003.60,0001.55,0000.80
2022-03-13 07:25:00,,0823.6,5.00,0.00,22.5,21.9,00.0,31.4,24.3,10.7,0000.0,0003.53,0001.50,0000.80
2022-03-13 07:26:00,,0823.4,4.99,0.00,22.5,21.8,00.0,31.4,24.3,10.6,0000.0,0004.32,0001.44,0000.78
2022-03-13 07:27:00,,0823.3,5.00,0.00,22.5,21.8,00.0,31.4,24.3,10.6,0000.0,0004.14,0001.38,0000.77
2022-03-13 07:28:00,,0823.4,4.99,0.00,22.5,21.8,00.0,31.4,24.3,10.6,0000.0,0003.98,0001.29,0000.76
2022-03-13 07:29:00,,0823.4,5.00,0.00,22.5,21.8,00.0,31.4,24.3,10.6,0000.0,0003.82,0001.22,0000.74
2022-03-13 07:30:00,,0823.4,5.02,0.00,22.5,21.8,00.0,31.4,24.3,10.6,0000.0,0003.62,0001.15,0000.72
2022-03-13 07:31:00,,0823.4,5.00,0.00,22.5,21.9,00.0,31.4,24.3,10.6,0000.0,0003.59,0001.15,0000.72
2022-03-13 07:32:00,,0823.3,5.00,0.00,22.5,21.9,00.0,31.4,24.4,10.6,0000.0,0003.48,0001.10,0000.72
2022-03-13 07:33:00,,0823.3,5.02,0.00,22.5,21.9,00.0,31.4,24.4,10.5,0000.0,0003.28,0001.05,0000.72
2022-03-13 07:34:00,,0823.4,4.99,0.00,22.5,21.9,00.0,31.5,24.4,10.5,0000.0,0003.24,0001.07,0000.73
2022-03-13 07:35:00,,0823.4,4.99,0.00,22.6,21.9,00.0,31.5,24.4,10.5,0000.0,0003.19,0001.06,0000.74
2022-03-13 07:36:00,,0823.3,4.99,0.00,22.5,21.9,00.0,31.5,24.4,10.5,0000.0,0003.08,0001.04,0000.73
2022-03-13 07:37:00,,0823.4,5.01,0.00,22.5,21.9,00.0,31.5,24.4,10.5,0000.0,0001.94,0001.05,0000.73
2022-03-13 07:38:00,,0823.3,5.02,0.00,22.6,21.9,00.0,31.5,24.4,10.5,0000.0,0001.84,0001.07,0000.74
2022-03-13 07:39:00,,0823.3,4.99,0.00,22.6,21.9,00.0,31.5,24.4,10.5,0000.0,0002.46,0001.07,0000.74
2022-03-13 07:40:00,,0823.3,4.99,0.00,22.6,21.9,00.0,31.5,24.4,10.4,0000.0,0002.46,0001.07,0000.74
2022-03-13 07:41:00,,0823.4,4.99,0.00,22.6,21.9,00.0,31.5,24.4,10.4,0000.0,0002.45,0001.07,0000.74
2022-03-13 07:42:00,,0823.4,5.00,0.00,22.6,21.9,00.0,31.5,24.4,10.4,0000.0,0002.39,0001.06,0000.75
2022-03-13 07:43:00,,0823.4,5.01,0.00,22.6,21.9,00.0,31.5,24.4,10.5,0000.0,0002.36,0001.05,0000.74
2022-03-13 07:44:00,,0823.3,5.01,0.00,22.6,21.9,00.0,31.5,24.4,10.5,0000.0,0002.33,0001.04,0000.73
2022-03-13 07:45:00,,0823.3,5.00,0.00,22.6,21.9,00.0,31.5,24.4,10.4,0000.0,0002.24,0000.99,0000.73
2022-03-13 07:46:00,,0823.3,4.99,0.00,22.6,21.9,00.0,31.5,24.4,10.4,0000.0,0002.22,0000.99,0000.72
2022-03-13 07:47:00,,0823.4,5.02,0.00,22.6,22.0,00.0,31.5,24.4,10.4,0000.0,0002.27,0001.01,0000.72
2022-03-13 07:48:00,,0823.4,5.00,0.00,22.6,22.0,00.0,31.5,24.4,10.4,0000.0,0002.24,0001.00,0000.71
2022-03-13 07:49:00,,0823.3,4.99,0.00,22.6,22.0,00.0,31.5,24.5,10.5,0000.0,0002.31,0001.01,0000.71
2022-03-13 07:50:00,,0823.4,5.00,0.00,22.7,21.9,00.0,31.6,24.4,10.5,0000.0,0001.61,0001.01,0000.71
2022-03-13 07:51:00,,0823.4,5.00,0.00,22.7,22.0,00.0,31.6,24.4,10.4,0000.0,0001.58,0000.99,0000.70
2022-03-13 07:52:00,,0823.4,5.01,0.00,22.7,22.0,00.0,31.6,24.5,10.3,0000.0,0001.59,0000.99,0000.70
2022-03-13 07:53:00,,0823.3,5.00,0.00,22.7,21.9,00.0,31.6,24.5,10.3,0000.0,0001.64,0001.00,0000.71
2022-03-13 07:54:00,,0823.3,4.99,0.00,22.7,21.9,00.0,31.6,24.4,10.4,0000.0,0001.60,0001.00,0000.71
2022-03-13 07:55:00,,0823.4,5.00,0.00,22.7,21.9,00.0,31.6,24.4,10.6,0000.0,0001.65,0000.99,0000.71
2022-03-13 07:56:00,,0823.3,5.02,0.00,22.7,22.0,00.0,31.6,24.5,10.7,0000.0,0001.77,0001.00,0000.70
2022-03-13 07:57:00,,0823.3,4.99,0.00,22.7,22.0,00.0,31.6,24.4,10.8,0000.0,0001.85,0001.04,0000.72
2022-03-13 07:58:00,,0823.3,4.99,0.00,22.7,22.0,00.0,31.6,24.5,10.8,0000.0,0001.94,0001.08,0000.76
2022-03-13 07:59:00,,0823.2,5.01,0.00,22.7,22.0,00.0,31.6,24.5,10.7,0000.0,0002.23,0001.15,0000.81
